Location: Unspecified
(35.6961°N, 0.0000°E)
Time: 17:17:46
(UTC+00:00)

UNISAT 6 - Pass Details

Date: 23 June 2019
Orbit: 607 x 689 km, 97.8° (Epoch: 16 July)

Event Time Altitude Azimuth Distance (km) Brightness Sun altitude
Rises 22:12:29 0° 347° (NNW) 2,891 ? -25.4°
Reaches altitude 10° 22:15:58 10° 316° (NW) 1,995 ? -25.8°
Maximum altitude 22:17:37 12° 294° (WNW) 1,869 ? -25.9°
Drops below altitude 10° 22:19:16 10° 272° (W) 2,006 ? -26.1°
Enters shadow 22:22:28 - 243° (WSW) 2,818 ? -26.3°
